When you browse on this site, cookies collect data to enhance your experience and personalize the content and advertising you see.
Visit our Privacy Policy to learn more. By continuing to use the site, you agree to this use of cookies and data.
  • En España
  • Lista de países
  • Para 7 días
  • Temperatura del agua
  • Mapa Satelital
  • El tiempo en el mapa
  • Informadores
  • user-avatar
    Iniciar sesión

    Tiempo cada hora Triest

    Hoy, 25 Junio, Martes

    Tiempo Temperatura Precipitaciones Viento Presión Humedad
    00:00 +23°C° 0 mm 2 mps 763 mmHg 82%
    01:00 +23°C° 0 mm 2 mps 763 mmHg 83%
    02:00 +21°C° 0 mm 3 mps 763 mmHg 84%
    03:00 +21°C° 0 mm 3 mps 762 mmHg 84%
    04:00 +21°C° 0 mm 3 mps 762 mmHg 85%
    05:00 +24°C° 0 mm 3 mps 762 mmHg 80%
    06:00 +25°C° 0 mm 3 mps 763 mmHg 74%
    07:00 +27°C° 0 mm 2 mps 763 mmHg 68%
    08:00 +29°C° 0 mm 2 mps 763 mmHg 62%
    09:00 +30°C° 0 mm 2 mps 763 mmHg 56%
    10:00 +32°C° 0 mm 2 mps 763 mmHg 49%
    11:00 +34°C° 0 mm 2 mps 763 mmHg 46%
    12:00 +35°C° 0 mm 2 mps 763 mmHg 43%
    13:00 +36°C° 0 mm 2 mps 763 mmHg 39%
    14:00 +36°C° 0 mm 3 mps 763 mmHg 40%
    15:00 +36°C° 0 mm 3 mps 762 mmHg 41%
    16:00 +36°C° 0 mm 3 mps 762 mmHg 42%
    17:00 +34°C° 0 mm 3 mps 762 mmHg 52%
    18:00 +31°C° 0 mm 3 mps 763 mmHg 62%
    19:00 +29°C° 0 mm 3 mps 763 mmHg 72%
    20:00 +28°C° 0 mm 2 mps 763 mmHg 76%
    21:00 +26°C° 0 mm 2 mps 764 mmHg 80%
    22:00 +25°C° 0 mm 2 mps 764 mmHg 84%
    23:00 +25°C° 0 mm 2 mps 764 mmHg 86%

    Mañana, 26 Junio, Miércoles

    Tiempo Temperatura Precipitaciones Viento Presión Humedad
    00:00 +24°C° 0 mm 2 mps 764 mmHg 87%
    01:00 +24°C° 0 mm 2 mps 764 mmHg 89%
    02:00 +24°C° 0 mm 2 mps 764 mmHg 90%
    03:00 +22°C° 0 mm 3 mps 764 mmHg 90%
    04:00 +22°C° 0 mm 3 mps 764 mmHg 90%
    05:00 +25°C° 0 mm 3 mps 764 mmHg 85%
    06:00 +26°C° 0 mm 2 mps 764 mmHg 80%
    07:00 +28°C° 0 mm 2 mps 764 mmHg 75%
    08:00 +30°C° 0 mm 2 mps 764 mmHg 65%
    09:00 +32°C° 0 mm 2 mps 764 mmHg 56%
    10:00 +35°C° 0 mm 2 mps 764 mmHg 46%
    11:00 +36°C° 0 mm 2 mps 764 mmHg 42%
    12:00 +38°C° 0 mm 2 mps 763 mmHg 39%
    13:00 +39°C° 0 mm 2 mps 763 mmHg 35%
    14:00 +38°C° 0 mm 2 mps 763 mmHg 37%
    15:00 +38°C° 0 mm 2 mps 763 mmHg 39%
    16:00 +38°C° 0 mm 2 mps 762 mmHg 41%
    17:00 +35°C° 0 mm 2 mps 762 mmHg 50%
    18:00 +32°C° 0 mm 1 mps 762 mmHg 60%
    19:00 +30°C° 0 mm 1 mps 762 mmHg 69%
    20:00 +29°C° 0 mm 1 mps 763 mmHg 71%
    21:00 +28°C° 0 mm 1 mps 763 mmHg 73%
    22:00 +26°C° 0 mm 1 mps 763 mmHg 75%
    23:00 +26°C° 0 mm 1 mps 763 mmHg 75%

    Pasado mañana, 27 Junio, Jueves

    Tiempo Temperatura Precipitaciones Viento Presión Humedad
    00:00 +26°C° 0 mm 1 mps 763 mmHg 75%
    01:00 +25°C° 0 mm 1 mps 763 mmHg 75%
    02:00 +25°C° 0 mm 1 mps 763 mmHg 74%
    03:00 +25°C° 0 mm 1 mps 762 mmHg 73%
    04:00 +25°C° 0 mm 1 mps 762 mmHg 72%
    05:00 +27°C° 0 mm 1 mps 762 mmHg 70%
    06:00 +28°C° 0 mm 1 mps 762 mmHg 68%
    07:00 +30°C° 0 mm 1 mps 761 mmHg 65%
    08:00 +32°C° 0 mm 1 mps 761 mmHg 57%
    09:00 +35°C° 0 mm 1 mps 761 mmHg 49%
    10:00 +39°C° 0 mm 1 mps 760 mmHg 41%
    11:00 +39°C° 0 mm 1 mps 760 mmHg 39%
    12:00 +39°C° 0 mm 2 mps 760 mmHg 36%
    13:00 +40°C° 0 mm 2 mps 759 mmHg 34%
    14:00 +39°C° 0 mm 2 mps 759 mmHg 36%
    15:00 +38°C° 0 mm 2 mps 758 mmHg 39%
    16:00 +38°C° 0 mm 2 mps 758 mmHg 41%
    17:00 +35°C° 0 mm 1 mps 758 mmHg 49%
    18:00 +33°C° 0 mm 1 mps 758 mmHg 57%
    19:00 +29°C° 0 mm 0 mps 757 mmHg 65%
    20:00 +30°C° 0.1 mm 1 mps 758 mmHg 66%
    21:00 +28°C° 0.1 mm 1 mps 758 mmHg 68%
    22:00 +27°C° 0.1 mm 1 mps 758 mmHg 69%
    23:00 +27°C° 0 mm 2 mps 759 mmHg 73%

    28 Junio, Viernes

    Tiempo Temperatura Precipitaciones Viento Presión Humedad
    00:00 +26°C° 0 mm 2 mps 759 mmHg 76%
    01:00 +26°C° 0 mm 3 mps 759 mmHg 79%
    02:00 +25°C° 0 mm 3 mps 759 mmHg 82%
    03:00 +23°C° 0 mm 4 mps 759 mmHg 85%
    04:00 +23°C° 0 mm 4 mps 759 mmHg 87%
    05:00 +23°C° 0 mm 4 mps 759 mmHg 80%
    06:00 +25°C° 0 mm 4 mps 759 mmHg 74%
    07:00 +25°C° 0 mm 5 mps 759 mmHg 67%
    08:00 +27°C° 0 mm 4 mps 759 mmHg 60%
    09:00 +29°C° 0 mm 4 mps 759 mmHg 52%
    10:00 +32°C° 0 mm 4 mps 759 mmHg 45%
    11:00 +33°C° 0 mm 4 mps 759 mmHg 43%
    12:00 +34°C° 0 mm 4 mps 759 mmHg 41%
    13:00 +35°C° 0 mm 4 mps 759 mmHg 39%
    14:00 +34°C° 0 mm 3 mps 759 mmHg 41%
    15:00 +34°C° 0 mm 3 mps 758 mmHg 43%
    16:00 +34°C° 0 mm 2 mps 758 mmHg 45%
    17:00 +31°C° 0 mm 2 mps 759 mmHg 53%
    18:00 +29°C° 0 mm 2 mps 759 mmHg 60%
    19:00 +28°C° 0 mm 2 mps 759 mmHg 67%
    20:00 +26°C° 0 mm 2 mps 760 mmHg 70%
    21:00 +25°C° 0 mm 3 mps 760 mmHg 72%
    22:00 +22°C° 0 mm 3 mps 760 mmHg 74%
    23:00 +22°C° 0 mm 3 mps 761 mmHg 73%

    29 Junio, Sábado

    Tiempo Temperatura Precipitaciones Viento Presión Humedad
    00:00 +21°C° 0 mm 3 mps 761 mmHg 73%
    01:00 +21°C° 0 mm 3 mps 761 mmHg 72%
    02:00 +21°C° 0 mm 4 mps 761 mmHg 71%
    03:00 +20°C° 0 mm 4 mps 761 mmHg 70%
    04:00 +20°C° 0 mm 4 mps 761 mmHg 69%
    05:00 +21°C° 0 mm 4 mps 761 mmHg 66%
    06:00 +22°C° 0 mm 4 mps 761 mmHg 64%
    07:00 +23°C° 0 mm 4 mps 761 mmHg 61%
    08:00 +26°C° 0 mm 4 mps 761 mmHg 56%
    09:00 +28°C° 0 mm 3 mps 761 mmHg 51%
    10:00 +29°C° 0 mm 3 mps 761 mmHg 46%
    11:00 +30°C° 0 mm 3 mps 761 mmHg 43%
    12:00 +31°C° 0 mm 3 mps 760 mmHg 40%
    13:00 +33°C° 0 mm 3 mps 760 mmHg 37%
    14:00 +33°C° 0 mm 3 mps 760 mmHg 38%
    15:00 +32°C° 0 mm 2 mps 760 mmHg 40%
    16:00 +31°C° 0 mm 2 mps 760 mmHg 41%
    17:00 +30°C° 0 mm 2 mps 760 mmHg 50%
    18:00 +28°C° 0 mm 2 mps 760 mmHg 59%
    19:00 +26°C° 0 mm 1 mps 760 mmHg 68%
    20:00 +25°C° 0 mm 1 mps 761 mmHg 69%
    21:00 +23°C° 0 mm 1 mps 761 mmHg 70%
    22:00 +22°C° 0 mm 1 mps 761 mmHg 71%
    23:00 +21°C° 0 mm 2 mps 761 mmHg 69%

    30 Junio, Domingo

    Tiempo Temperatura Precipitaciones Viento Presión Humedad
    00:00 +20°C° 0 mm 2 mps 761 mmHg 67%
    01:00 +20°C° 0 mm 2 mps 761 mmHg 65%
    02:00 +19°C° 0 mm 2 mps 761 mmHg 63%
    03:00 +19°C° 0 mm 2 mps 761 mmHg 62%
    04:00 +19°C° 0 mm 2 mps 761 mmHg 61%
    05:00 +20°C° 0 mm 2 mps 761 mmHg 60%
    06:00 +23°C° 0 mm 2 mps 761 mmHg 59%
    07:00 +24°C° 0 mm 2 mps 761 mmHg 58%
    08:00 +27°C° 0 mm 1 mps 761 mmHg 52%
    09:00 +30°C° 0 mm 1 mps 761 mmHg 46%
    10:00 +32°C° 0 mm 1 mps 761 mmHg 41%
    11:00 +33°C° 0 mm 1 mps 760 mmHg 40%
    12:00 +35°C° 0 mm 2 mps 760 mmHg 38%
    13:00 +36°C° 0 mm 2 mps 760 mmHg 37%
    14:00 +35°C° 0 mm 2 mps 760 mmHg 40%
    15:00 +34°C° 0 mm 2 mps 759 mmHg 43%
    16:00 +34°C° 0 mm 2 mps 759 mmHg 46%
    17:00 +31°C° 0 mm 2 mps 759 mmHg 55%
    18:00 +29°C° 0 mm 1 mps 759 mmHg 63%
    19:00 +27°C° 0 mm 1 mps 759 mmHg 72%
    20:00 +26°C° 0 mm 1 mps 759 mmHg 75%
    21:00 +25°C° 0 mm 1 mps 760 mmHg 78%
    22:00 +23°C° 0 mm 1 mps 760 mmHg 80%
    23:00 +23°C° 0 mm 1 mps 760 mmHg 81%
    Mostrar más